CZ-6A DEB, 54952

Orbit data source: Space-Track

CZ-6A DEB, 54952 is space debris in SSO originally from a launch on Fri, 11 Nov 2022 UTC launched from the Taiyaun Space Center, China (TSC). Debris objects in space refer to the collection of defunct objects orbiting the Earth. Examples of debris include non-operational satellites, rocket bodies, and fragments generated from explosions, collisions, or faulty payload assembly.

Loading next visibility...
Identifier
54952, 2022-151SR
Orbit
SSO
Country
Flag of CNCN / PRC
Related business
Manufacturer
SAST
Mission
Spacecraft
Bus & Motor
Unknown
Mass
Unknown
Launch date (UTC)
2022-11-11 (4 years ago)
Launch vehicle
Unknown
Launch site
Taiyaun Space Center, China (TSC)
Object type
Payload
Rocket body
Debris
Shape & HBR
Unknown shape, 0.6 m
Radar Cross Section
Medium (>0.1 m² and <1 m²)

Expand to show TLE details & history
Last TLE update: 10 hours ago

TLE from 10 hours ago
0 CZ-6A DEB
1 54952U 22151SR  26264.89175337 -.00000129  00000-0 -60067-4 0  9996
2 54952  98.9582 240.9287 0113189 166.5415 193.8809 13.95791775196290
Epoch: 2026-09-21T21:24Z
TLE epoch observation values (Epoch: 2026-09-21T21:24:07.491Z)
Latitude
-0.00004°
Longitude
-80.86758°
Altitude
991.413 km
Speed
7.315 km/s
True Right ascension
16h 03m 42s
True Declination
0° 00' 00"
Sunlit
Object was in daylight at epoch
Visualization orbit readout
Latitude
Unknown
Longitude
Unknown
Altitude
Unknown
Speed
Unknown
Apparent Right ascension
Unknown
Apparent Declination
Unknown
Sunlit
N/A
Visualization observer readout
Local Sidereal Time
00:05:00
Azimuth
Unknown
Elevation
Unknown
Doppler factor
Unknown
Orbital elements
Apogee altitude
988.051 km
Perigee altitude
823.163 km
Semi-major axis
7,283.744 km
Eccentricity
0.01132
Inclination
98.9582°
RAAN
240.9287°
Arg. of periapsis
166.5415°
True anomaly
193.57395°
Mean anomaly
193.8809°
Eccentric anomaly
193.72701°
Mean motion
3.49149 °/min
Orbital period
103.11 mins
BSTAR
-0.000060067
Loading maneuver chart data...
Computing Atmospheric mass density...

Documentation

Showing up to 5 results
|